Date String (YYYY-MM-DD hh:mm:ss) UTC,Instrument flags,Ambient pressure (hPa),Sample flow (lpm),Bypass flow (lpm),Sample temperature (°C),Ambient temperature (°C),ASC tube jacket temperature (°C),LED temperature (°C),Box temperature (°C),Sample RH (%),Span deviation,Mass concentration (μg/m³),Mass concentration (μg/m³),Mass concentration (μg/m³)
DateTimeUTC,F1_M11,P_M11,Q1_M11,Q2_M11,T1_M11,T2_M11,T3_M11,T4_M11,T5_M11,U1_M11,ZSPAN_M11,X0_M11,X2_M11,X1_M11
2022-06-29 06:00:00,,0829.2,5.00,0.00,29.3,27.7,00.0,38.1,31.1,15.4,0000.0,0008.61,0003.89,0003.51
2022-06-29 06:01:00,,0829.2,5.01,0.00,29.3,27.8,00.0,38.1,31.2,15.4,0000.0,0008.55,0003.86,0003.50
2022-06-29 06:02:00,,0829.2,5.00,0.00,29.3,28.0,00.0,38.1,31.2,15.3,0000.0,0008.74,0003.91,0003.49
2022-06-29 06:03:00,,0829.2,5.01,0.00,29.3,28.1,00.0,38.1,31.2,15.2,0000.0,0008.30,0003.95,0003.49
2022-06-29 06:04:00,,0829.3,5.00,0.00,29.4,28.2,00.0,38.1,31.3,15.1,0000.0,0008.24,0003.94,0003.48
2022-06-29 06:05:00,,0829.3,5.00,0.00,29.4,28.3,00.0,38.1,31.3,15.0,0000.0,0008.24,0003.93,0003.48
2022-06-29 06:06:00,,0829.2,5.00,0.00,29.4,28.4,00.0,38.1,31.4,15.0,0000.0,0007.68,0003.92,0003.46
2022-06-29 06:07:00,,0829.2,5.00,0.00,29.4,28.5,00.0,38.2,31.4,15.0,0000.0,0007.95,0003.92,0003.45
2022-06-29 06:08:00,,0829.2,5.00,0.00,29.5,28.6,00.0,38.2,31.4,14.8,0000.0,0007.93,0003.94,0003.43
2022-06-29 06:09:00,,0829.2,5.01,0.00,29.5,28.5,00.0,38.2,31.4,14.8,0000.0,0007.83,0003.89,0003.40
2022-06-29 06:10:00,,0829.3,4.99,0.00,29.5,27.8,00.0,38.1,31.3,14.9,0000.0,0007.86,0003.86,0003.38
2022-06-29 06:11:00,,0829.2,5.01,0.00,29.4,27.4,00.0,38.1,31.2,15.0,0000.0,0007.83,0003.85,0003.36
2022-06-29 06:12:00,,0829.3,5.01,0.00,29.4,27.4,00.0,38.1,31.1,15.0,0000.0,0008.00,0003.83,0003.34
2022-06-29 06:13:00,,0829.2,4.99,0.00,29.3,27.5,00.0,38.1,31.1,15.4,0000.0,0007.99,0003.79,0003.33
2022-06-29 06:14:00,,0829.2,4.98,0.00,29.3,27.6,00.0,38.1,31.1,15.5,0000.0,0007.79,0003.74,0003.32
2022-06-29 06:15:00,,0829.3,5.01,0.00,29.3,27.7,00.0,38.1,31.2,15.6,0000.0,0007.72,0003.72,0003.29
2022-06-29 06:16:00,,0829.3,5.00,0.00,29.3,27.9,00.0,38.1,31.2,15.6,0000.0,0007.78,0003.74,0003.28
2022-06-29 06:17:00,,0829.2,5.00,0.00,29.3,28.0,00.0,38.1,31.3,15.7,0000.0,0007.77,0003.73,0003.28
2022-06-29 06:18:00,,0829.3,5.00,0.00,29.4,28.1,00.0,38.1,31.3,15.7,0000.0,0007.80,0003.72,0003.28
2022-06-29 06:19:00,,0829.2,4.99,0.00,29.4,28.2,00.0,38.1,31.3,15.7,0000.0,0007.58,0003.69,0003.28
2022-06-29 06:20:00,,0829.2,5.01,0.00,29.4,28.3,00.0,38.1,31.3,15.6,0000.0,0007.56,0003.69,0003.28
2022-06-29 06:21:00,,0829.3,5.01,0.00,29.4,28.4,00.0,38.2,31.4,15.6,0000.0,0007.56,0003.70,0003.28
2022-06-29 06:22:00,,0829.2,4.99,0.00,29.5,28.5,00.0,38.2,31.4,15.5,0000.0,0007.81,0003.74,0003.29
2022-06-29 06:23:00,,0829.3,5.01,0.00,29.5,28.6,00.0,38.2,31.5,15.4,0000.0,0007.76,0003.76,0003.29
2022-06-29 06:24:00,,0829.3,5.00,0.00,29.5,28.0,00.0,38.2,31.3,15.3,0000.0,0007.67,0003.79,0003.29
2022-06-29 06:25:00,,0829.2,4.99,0.00,29.4,27.5,00.0,38.1,31.1,15.5,0000.0,0007.75,0003.80,0003.28
2022-06-29 06:26:00,,0829.3,4.99,0.00,29.4,27.4,00.0,38.1,31.1,15.6,0000.0,0007.75,0003.80,0003.28
2022-06-29 06:27:00,,0829.3,5.01,0.00,29.3,27.4,00.0,38.1,31.1,15.6,0000.0,0007.64,0003.76,0003.28
2022-06-29 06:28:00,,0829.3,4.99,0.00,29.3,27.5,00.0,38.1,31.1,15.8,0000.0,0007.68,0003.75,0003.28
2022-06-29 06:29:00,,0829.3,4.99,0.00,29.3,27.7,00.0,38.1,31.1,16.5,0000.0,0007.26,0003.80,0003.28
2022-06-29 06:30:00,,0829.3,5.00,0.00,29.3,27.8,00.0,38.1,31.2,16.6,0000.0,0007.34,0003.84,0003.29
2022-06-29 06:31:00,,0829.3,5.00,0.00,29.3,28.0,00.0,38.1,31.2,16.7,0000.0,0007.45,0003.87,0003.30
2022-06-29 06:32:00,,0829.3,5.01,0.00,29.4,28.1,00.0,38.1,31.3,16.8,0000.0,0007.33,0003.87,0003.31
2022-06-29 06:33:00,,0829.2,5.00,0.00,29.4,28.2,00.0,38.1,31.3,16.8,0000.0,0006.92,0003.83,0003.31
2022-06-29 06:34:00,,0829.2,4.98,0.00,29.4,28.3,00.0,38.1,31.3,16.8,0000.0,0006.90,0003.82,0003.31
2022-06-29 06:35:00,,0829.2,5.01,0.00,29.4,28.4,00.0,38.2,31.4,16.7,0000.0,0006.85,0003.81,0003.32
2022-06-29 06:36:00,,0829.2,5.01,0.00,29.5,28.5,00.0,38.2,31.4,16.5,0000.0,0007.26,0003.82,0003.34
2022-06-29 06:37:00,,0829.2,4.99,0.00,29.5,28.6,00.0,38.2,31.5,16.5,0000.0,0007.51,0003.83,0003.37
2022-06-29 06:38:00,,0829.2,5.00,0.00,29.5,28.6,00.0,38.2,31.5,16.5,0000.0,0007.68,0003.86,0003.39
2022-06-29 06:39:00,,0829.2,5.01,0.00,29.5,28.7,00.0,38.2,31.5,16.1,0000.0,0007.86,0003.87,0003.41
2022-06-29 06:40:00,,0829.2,5.00,0.00,29.5,28.1,00.0,38.2,31.4,16.2,0000.0,0008.07,0003.84,0003.41
2022-06-29 06:41:00,,0829.3,4.99,0.00,29.5,27.1,00.0,38.1,31.1,16.2,0000.0,0008.29,0003.81,0003.42
2022-06-29 06:42:00,,0829.2,5.00,0.00,29.4,26.8,00.0,38.1,31.0,16.3,0000.0,0008.29,0003.83,0003.43
2022-06-29 06:43:00,,0829.3,5.00,0.00,29.3,26.8,00.0,38.1,31.0,16.7,0000.0,0008.30,0003.84,0003.45
2022-06-29 06:44:00,,0829.3,5.01,0.00,29.2,26.9,00.0,38.1,30.9,16.7,0000.0,0008.37,0003.88,0003.46
2022-06-29 06:45:00,,0829.2,5.01,0.00,29.2,27.1,00.0,38.1,31.0,16.8,0000.0,0008.26,0003.85,0003.48
2022-06-29 06:46:00,,0829.3,5.00,0.00,29.2,27.3,00.0,38.0,31.0,17.0,0000.0,0008.71,0003.85,0003.49
2022-06-29 06:47:00,,0829.3,4.99,0.00,29.2,27.5,00.0,38.0,31.0,17.1,0000.0,0008.52,0003.86,0003.49
2022-06-29 06:48:00,,0829.2,4.99,0.00,29.2,27.6,00.0,38.0,31.1,17.2,0000.0,0008.44,0003.88,0003.48
2022-06-29 06:49:00,,0829.2,4.99,0.00,29.2,27.8,00.0,38.0,31.1,17.3,0000.0,0008.38,0003.89,0003.48
2022-06-29 06:50:00,,0829.4,5.00,0.00,29.2,27.9,00.0,38.0,31.2,17.2,0000.0,0008.22,0003.91,0003.49
2022-06-29 06:51:00,,0829.3,5.01,0.00,29.3,28.1,00.0,38.0,31.2,16.7,0000.0,0008.02,0003.93,0003.49
2022-06-29 06:52:00,,0829.3,4.99,0.00,29.3,28.2,00.0,38.0,31.2,16.9,0000.0,0007.70,0003.93,0003.50
2022-06-29 06:53:00,,0829.2,4.99,0.00,29.3,28.3,00.0,38.1,31.3,16.7,0000.0,0008.05,0003.91,0003.49
2022-06-29 06:54:00,,0829.2,5.00,0.00,29.3,28.3,00.0,38.1,31.3,16.6,0000.0,0008.45,0003.91,0003.49
2022-06-29 06:55:00,,0829.2,5.01,0.00,29.4,28.4,00.0,38.1,31.3,16.6,0000.0,0008.66,0003.88,0003.48
2022-06-29 06:56:00,,0829.3,5.01,0.00,29.4,28.5,00.0,38.1,31.4,16.6,0000.0,0008.93,0003.90,0003.48
2022-06-29 06:57:00,,0829.2,4.99,0.00,29.4,28.6,00.0,38.1,31.4,16.5,0000.0,0009.05,0003.91,0003.47
2022-06-29 06:58:00,,0829.2,5.01,0.00,29.5,28.6,00.0,38.2,31.5,16.6,0000.0,0008.96,0003.91,0003.47
2022-06-29 06:59:00,,0829.2,5.00,0.00,29.5,28.7,00.0,38.2,31.5,16.4,0000.0,0008.84,0003.88,0003.46
